User: anonymous   Login
Location: Bartlow
(52.0833°N, 0.3167°E)
Time: 22:57:14
(UTC+00:00)
Language:

BlueWalker 3 - Orbit

View from above orbital plane
View from above orbital plane
View from above satellite
View from above satellite

Ground track
Ground track

The orbit data is extracted from the following two-line orbital elements,

1 53807U 22111AL  24055.57090934  .00010645  00000-0  44279-3 0  9998
2 53807  53.2399 356.4202 0010369 109.2727 250.9395 15.24283507 80890
Epoch (UTC): 24 February 2024 13:42:06
Eccentricity: 0.0010369
inclination: 53.2399°
perigee height: 486 km
apogee height: 500 km
right ascension of ascending node: 356.4202°
argument of perigee: 109.2727°
revolutions per day: 15.24283507
mean anomaly at epoch: 250.9395°
orbit number at epoch: 8089

The dashed part of the orbit path shows where the satellite is in the earth's shadow,  

DLR